sat.trackr.live / text

‹ back to catalog

STARLINK-3370

NORAD 51127 · 2022-005Z

PAYLOAD ACTIVE UNKNOWN

§ Identity

Operator
Country
US
Launch date
2022-01-19
Launch site
AFETR
Launch vehicle
Mass (kg)
RCS (m²)

Purposes: comms

External: N2YO · Heavens-Above · Gunter

§ Orbital elements

Epoch: 2026-05-25T04:41:16.138752Z

Period
95.44 min
Inclination
53.2136°
Eccentricity
0.0001274
Mean motion
15.08840926 rev/d
Perigee alt
538.9 km
Apogee alt
540.6 km
Semi-major
6,917.9 km
B*
3.6601e-5
RAAN
315.6832°
Arg perigee
87.0630°
Mean anomaly
273.0508°
Rev number
24,028

§ Raw data

STARLINK-33701 51127U 22005Z   26145.19532568  .00000295  00000+0  36601-4 0  99972 51127  53.2136 315.6832 0001274  87.0630 273.0508 15.08840926240288

JSON: /api/v1/satellites/51127 · /tle

For live sub-satellite position, see the globe view (requires WebGL).

§ Visibility from observer

Set your observer location to see the next 7 days of passes ≥ 10°. The values pass through the URL so the page stays shareable.

No JS? Fill the form by hand. The geolocation button needs JavaScript.